Berlin, NH

6:31 AM EDT on May 29, 2017 (GMT -0400)
Berlin Municipal

Weather History for KBML - August, 2014

Change the Weather History Date:

Sunday, August 31, 2014

  Actual Average Record
Temperature  
Mean Temperature 65 °F -  
Max Temperature 75 °F 73 °F 89 °F (2010)
Min Temperature 55 °F 44 °F 34 °F (2003)
Growing Degree Days 15 (Base 50)    
Moisture  
Dew Point 63 °F    
Average Humidity 86    
Maximum Humidity 100    
Minimum Humidity 73    
Precipitation  
Precipitation 0.07 in - - ()
Sea Level Pressure  
Sea Level Pressure 30.00 in    
Wind  
Wind Speed 2 mph (SSW)    
Max Wind Speed 8 mph    
Max Gust Speed -    
Visibility 9 miles    
Events Rain    
Averages and records for this station are not official NWS values.
T = Trace of Precipitation, MM = Missing Value Source: NWS Daily Summary

Daily Weather History Graph

Daily Weather History Graph

Search for Another Location

Airport or City:

Trip Planner

Search our weather history database for the weather conditions in past years. The results will help you decide how hot, cold, wet, or windy it might be!

Date:

Astronomy

Aug. 31, 2014 Rise Set
Actual Time 6:06 AM EDT 7:23 PM EDT
Civil Twilight 5:35 AM EDT 7:53 PM EDT
Nautical Twilight 4:59 AM EDT 8:29 PM EDT
Astronomical Twilight 4:21 AM EDT 9:07 PM EDT
Moon 12:04 PM EDT (8/31) 10:20 PM EDT (8/31)
Length of Visible Light 14h 17m
Length of Day
13h 17m
Waxing Crescent, 32% of the Moon is Illuminated
Aug 31
Waxing Crescent
Sep 2
First Quarter
Sep 8
Full
Sep 15
Last Quarter
Sep 24
New

Hourly Weather History & Observations

Time (EDT) Temp. Dew Point Humidity Pressure Visibility Wind Dir Wind Speed Gust Speed Precip Events Conditions
12:52 AM 55.0 °F 54.0 °F 96% 30.07 in 10.0 mi Calm Calm - N/A   Clear
1:52 AM 55.0 °F 54.0 °F 96% 30.05 in 10.0 mi Calm Calm - N/A   Clear
2:52 AM 55.0 °F 54.0 °F 96% 30.04 in 10.0 mi Calm Calm - N/A   Clear
3:52 AM 55.9 °F 55.0 °F 97% 30.03 in 10.0 mi Calm Calm - N/A   Clear
4:52 AM 55.9 °F 54.0 °F 93% 30.02 in 10.0 mi Calm Calm - N/A   Clear
5:52 AM 57.0 °F 55.0 °F 93% 30.02 in 10.0 mi North 4.6 mph - N/A   Clear
6:52 AM 59.0 °F 57.0 °F 93% 30.04 in 10.0 mi Calm Calm - N/A   Mostly Cloudy
7:03 AM 59.0 °F 57.0 °F 93% 30.04 in 10.0 mi Calm Calm - N/A   Overcast
7:19 AM 59.0 °F 57.9 °F 96% 30.05 in 9.0 mi Calm Calm - 0.00 in Rain Light Rain
7:52 AM 60.1 °F 59.0 °F 96% 30.04 in 10.0 mi Calm Calm - 0.00 in   Overcast
8:52 AM 66.0 °F 62.1 °F 87% 30.02 in 10.0 mi North 4.6 mph - N/A   Scattered Clouds
9:52 AM 69.1 °F 64.0 °F 84% 30.01 in 10.0 mi Calm Calm - 0.00 in   Partly Cloudy
10:24 AM 71.1 °F 64.0 °F 78% 30.01 in 10.0 mi Calm Calm - N/A   Mostly Cloudy
10:34 AM 71.1 °F 64.9 °F 81% 30.01 in 10.0 mi Calm Calm - N/A   Scattered Clouds
10:52 AM 72.0 °F 64.9 °F 78% 30.01 in 10.0 mi Calm Calm - N/A   Mostly Cloudy
11:52 AM 75.0 °F 66.0 °F 73% 29.98 in 9.0 mi SSE 6.9 mph - N/A   Overcast
12:12 PM 75.9 °F 66.9 °F 74% 29.98 in 9.0 mi SW 3.5 mph - N/A   Overcast
12:20 PM 75.9 °F 66.9 °F 74% 29.98 in 10.0 mi Calm Calm - N/A   Overcast
12:52 PM 75.0 °F 66.0 °F 73% 29.98 in 9.0 mi South 4.6 mph - N/A   Overcast
1:40 PM 75.0 °F 66.0 °F 73% 29.98 in 9.0 mi SSW 6.9 mph - N/A   Overcast
1:52 PM 75.0 °F 66.0 °F 73% 29.98 in 9.0 mi SSW 6.9 mph - N/A   Overcast
2:23 PM 75.0 °F 66.0 °F 73% 29.98 in 9.0 mi SW 8.1 mph - N/A   Overcast
2:52 PM 75.0 °F 66.0 °F 73% 29.97 in 9.0 mi SSW 8.1 mph - N/A   Overcast
3:52 PM 73.0 °F 66.9 °F 81% 29.97 in 5.0 mi SSW 6.9 mph - 0.01 in Rain Light Rain
4:39 PM 71.1 °F 69.1 °F 93% 29.97 in 5.0 mi Variable 3.5 mph - 0.03 in Rain Light Rain
4:52 PM 71.1 °F 68.0 °F 90% 29.96 in 7.0 mi SSE 4.6 mph - 0.03 in Rain Light Rain
5:52 PM 72.0 °F 68.0 °F 87% 29.96 in 8.0 mi Variable 4.6 mph - 0.00 in Rain Light Rain
6:52 PM 70.0 °F 68.0 °F 93% 29.94 in 7.0 mi Calm Calm - 0.01 in Rain Light Rain
7:52 PM 70.0 °F 66.9 °F 90% 29.95 in 10.0 mi Calm Calm - 0.01 in   Overcast
8:33 PM 69.1 °F 68.0 °F 96% 29.97 in 6.0 mi Calm Calm - 0.01 in Rain Light Rain
8:52 PM 68.0 °F 68.0 °F 100% 29.96 in 4.0 mi Calm Calm - 0.01 in Rain Light Rain